Regional Weather Roundup
Issued by NWS

Home | Current Version | Previous Version | Text Only | Print | Product List | Glossary On
Versions: 1 2 3 4 5 6 7 8 9 10 11 12 13 14 15 16 17 18 19 20 21 22 23 24 25 26 27 28 29 30 31 32 33 34 35 36 37 38 39 40 41 42 43 44 45 46 47 48 49 50
000
ASUS42 KKEY 251610
RWRKEY

FLORIDA REGIONAL WEATHER ROUNDUP FOR THE FLORIDA KEYS
NATIONAL WEATHER SERVICE KEY WEST FLORIDA
1100 AM EST SUN JAN 25 2015

...SOUTH FLORIDA AND THE KEYS...

CITY           SKY/WX    TMP DP  RH WIND       PRES   REMARKS
FORT MYERS     SUNNY     60  46  59 N8        30.12R
SW REGIONAL AP SUNNY     59  46  62 NE9       30.12S
NAPLES         SUNNY     62  48  60 N9        30.11S
MIAMI          MOSUNNY   60  40  47 N10       30.10F
WEST KENDALL   SUNNY     62  44  51 N14       30.11F
HOMESTEAD      SUNNY     61  46  59 NW13      30.10F
MARATHON       SUNNY     64  55  72 N12       30.10S
BOCA CHICA NAS PTSUNNY   67  56  67 N10       30.11R
KEY WEST INTL  PTSUNNY   64  57  78 NE10      30.11R

...INTERNATIONAL WEATHER...

CITY           SKY/WX    TMP DP  RH WIND       PRES   REMARKS
NASSAU BAHAMAS PTSUNNY   72  57  60 N7        30.07R
CANCUN MEXICO  MOSUNNY   73  61  64 N8        30.10S
COZUMEL MEXICO SUNNY     70  61  73 N14       30.11R

ADJACENT COASTAL WATERS...

STATION/POSITION TIME  SKY/WX   TEMP    WIND        PRES    WAVE
                                AIR SEA DIR/SP/G            HT/PER
                 (UTC)          (F)     (DEG/KT/KT) (MB)    (FT/S)
PULASKI SHOAL LI NOT AVBL
SAND KEY         NOT AVBL
SOMBRERO KEY     NOT AVBL
LONG KEY         NOT AVBL
MOLASSES REEF    NOT AVBL
FOWEY ROCKS      NOT AVBL
Buoy 42080       NOT AVBL

$$


USA.gov is the U.S. government's official web portal to all federal, state and local government web resources and services.